Regional Weather Roundup
Issued by NWS

Home | Current Version | Previous Version | Graphics & Text | Print | Product List | Glossary On
Versions: 1 2 3 4 5 6 7 8 9 10 11 12 13 14 15 16 17 18 19 20 21 22 23 24 25 26 27 28 29 30 31 32 33 34 35 36 37 38 39 40 41 42 43 44 45 46 47 48 49 50
000
ASUS43 KLSX 270459
RWRMO

WEATHER SUMMARY FOR MISSOURI
NATIONAL WEATHER SERVICE SPRINGFIELD MO
1200 AM CDT WED AUG 27 2014

NOTE: "FAIR" INDICATES FEW OR NO CLOUDS BELOW 12,000 FEET WITH NO
       SIGNIFICANT WEATHER AND/OR OBSTRUCTIONS TO VISIBILITY.
       CURRENT SKY AND/OR WEATHER CONDITIONS ARE NOT AVAILABLE FOR
       CHILLICOTHE AND FARMINGTON.

MOZ001>031-035>038-043-044-053-054-270600-
...NORTHERN AND WESTERN MISSOURI...

CITY           SKY/WX    TMP DP  RH WIND       PRES   REMARKS
KANSAS CTY INT MOCLDY    78  71  79 NE7       30.09S
KANSAS C DTWN  MOCLDY    80  72  76 E6        30.07S
LEE`S SUMMIT   MOCLDY    78  73  84 E8        30.10R
ST JOSEPH      PTCLDY    76  71  85 E6        30.09S
KIRKSVILLE     MOCLDY    72  68  87 NE6       30.14R

$$
MOZ066>068-077>081-088>096-101>105-270600-
...SOUTHWEST MISSOURI...

CITY           SKY/WX    TMP DP  RH WIND       PRES   REMARKS
SPRINGFIELD    MOCLDY    73  68  84 NE6       30.10R
JOPLIN         MOCLDY    75  69  81 SE3       30.08F

$$
MOZ032>034-039>042-045>050-055>058-069>072-270600-
...CENTRAL MISSOURI...

CITY           SKY/WX    TMP DP  RH WIND       PRES   REMARKS
COLUMBIA       PTCLDY    78  73  84 NE6       30.10R
JEFFERSON CITY PTCLDY    75  69  81 CALM      30.09R
ROLLA          MOCLDY    73  67  81 CALM      30.10R
SEDALIA        PTCLDY    75  70  84 SW3       30.10R
OSAGE BEACH    PTCLDY    72  66  83 CALM      30.10R

$$
MOZ051-052-059>065-270600-
...EAST CENTRAL MISSOURI...

CITY           SKY/WX    TMP DP  RH WIND       PRES   REMARKS
ST LOUIS INTL  CLOUDY    79  67  66 NE16G26   30.14R
SPIRIT OF STL  PTCLDY    77  72  84 CALM      30.08R
ST CHARLES     CLOUDY    77  65  66 E18G30    30.11R THUNDER

$$
MOZ072>076-082>087-097>100-106>115-270600-
...SOUTH CENTRAL AND SOUTHEAST MISSOURI...

CITY           SKY/WX    TMP DP  RH WIND       PRES   REMARKS
CAPE GIRARDEAU CLEAR     74  72  93 CALM      30.07S
FARMINGTON     CLEAR     75  70  83 CALM      30.13S
POPLAR BLUFF   CLEAR     75  70  84 CALM      30.07R
WEST PLAINS    CLEAR     76  68  76 CALM      30.13R

$$



USA.gov is the U.S. government's official web portal to all federal, state and local government web resources and services.